DW0809 Weather Reports


time (UTC)temp
C
wind
direction
speed
KPH
gust
KPH
rain 1hr
cm
rain 24hr
cm
rain mn
cm
humidity
%
barometer
mb
20260505011517 17 0.0 0.0 0.00 0.00 0.00 36 1006.9
20260505010536 18 0.0 0.0 0.00 0.00 0.00 34 1006.5
20260505005516 18 0.0 0.0 0.00 0.00 0.00 34 1006.1
20260505004516 19 0.0 0.0 0.00 0.00 0.00 33 1006.2
20260505003516 20 0.0 0.0 0.00 0.00 0.00 32 1005.9
20260505002516 20 0.0 0.0 0.00 0.00 0.00 32 1005.8
20260505001516 21 0.0 0.0 0.00 0.00 0.00 32 1005.6
20260505000516 21 0.0 0.0 0.00 0.00 0.00 31 1005.7
20260504235516 22 0.0 0.0 0.00 0.00 0.00 31 1005.7
20260504234516 22 0.0 0.0 0.00 0.00 0.00 30 1005.7
20260504233516 22 0.0 0.0 0.00 0.00 0.00 30 1005.5
20260504232516 23 0.0 0.0 0.00 0.00 0.00 29 1005.3
20260504231536 23 0.0 0.0 0.00 0.00 0.00 28 1005.2
20260504230516 24 0.0 0.0 0.00 0.00 0.00 27 1005.1
20260504225516 25 0.0 0.0 0.00 0.00 0.00 27 1004.8
20260504224516 25 0.0 0.0 0.00 0.00 0.00 27 1004.7
20260504222536 26 0.0 0.0 0.00 0.00 0.00 28 1004.3
20260504221516 26 0.0 0.0 0.00 0.00 0.00 28 1004.0
20260504220516 26 0.0 0.0 0.00 0.00 0.00 29 1004.0
20260504215516 26 0.0 0.0 0.00 0.00 0.00 30 1003.9
20260504214516 26 0.0 0.0 0.00 0.00 0.00 30 1003.9
20260504213536 26 0.0 0.0 0.00 0.00 0.00 29 1003.9
20260504212516 27 0.0 0.0 0.00 0.00 0.00 31 1003.8
20260504211516 26 0.0 0.0 0.00 0.00 0.00 31 1003.8
20260504210516 27 0.0 0.0 0.00 0.00 0.00 32 1003.8
20260504205516 27 0.0 0.0 0.00 0.00 0.00 32 1003.8
20260504204516 27 0.0 0.0 0.00 0.00 0.00 33 1003.7
20260504203516 27 0.0 0.0 0.00 0.00 0.00 32 1003.7
20260504202516 27 0.0 0.0 0.00 0.00 0.00 31 1003.8
20260504201516 27 0.0 0.0 0.00 0.00 0.00 31 1003.8
20260504200516 28 0.0 0.0 0.00 0.00 0.00 30 1003.7
20260504195516 27 0.0 0.0 0.00 0.00 0.00 31 1003.7
20260504194516 28 0.0 0.0 0.00 0.00 0.00 29 1003.7
20260504193516 28 0.0 0.0 0.00 0.00 0.00 29 1003.5
20260504192516 28 0.0 0.0 0.00 0.00 0.00 27 1003.6
20260504191516 28 0.0 0.0 0.00 0.00 0.00 28 1003.3
20260504190515 28 0.0 0.0 0.00 0.00 0.00 27 1003.4
20260504185516 28 0.0 0.0 0.00 0.00 0.00 30 1003.3
20260504184536 28 0.0 0.0 0.00 0.00 0.00 28 1003.3
20260504183515 28 0.0 0.0 0.00 0.00 0.00 28 1003.4
20260504182536 27 0.0 0.0 0.00 0.00 0.00 27 1003.6
20260504181515 27 0.0 0.0 0.00 0.00 0.00 28 1003.6
20260504180516 27 0.0 0.0 0.00 0.00 0.00 28 1003.7
20260504175516 27 0.0 0.0 0.00 0.00 0.00 30 1003.8
20260504174516 27 0.0 0.0 0.00 0.00 0.00 32 1003.8
20260504173516 26 0.0 0.0 0.00 0.00 0.00 35 1004.0
20260504172516 26 0.0 0.0 0.00 0.00 0.00 36 1003.9
20260504171535 26 0.0 0.0 0.00 0.00 0.00 35 1004.0
20260504170516 25 0.0 0.0 0.00 0.00 0.00 38 1004.2
20260504150535 20 0.0 0.0 0.00 0.00 0.00 48 1004.1
20260504140517 17 0.0 0.0 0.00 0.00 0.00 55 1004.4
20260504130537 12 0.0 0.0 0.00 0.00 0.00 73 1003.8
20260504110517 11 0.0 0.0 0.00 0.00 0.00 73 1003.5
20260504100517 12 0.0 0.0 0.00 0.00 0.00 61 1004.0
20260504081517 14 0.0 0.0 0.00 0.00 0.00 54 1005.6
20260504080516 14 0.0 0.0 0.00 0.00 0.00 54 1005.8
20260504050516 16 0.0 0.0 0.00 0.00 0.00 49 1008.4
20260504045517 16 0.0 0.0 0.00 0.00 0.00 49 1008.4
20260504044517 16 0.0 0.0 0.00 0.00 0.00 49 1008.4
20260504043517 16 0.0 0.0 0.00 0.00 0.00 48 1008.6
20260504042557 17 0.0 0.0 0.00 0.00 0.00 47 1008.7
20260504041517 17 0.0 0.0 0.00 0.00 0.00 46 1008.8
20260504040537 17 0.0 0.0 0.00 0.00 0.00 46 1008.8
20260504035537 17 0.0 0.0 0.00 0.00 0.00 46 1008.9
20260504034517 18 0.0 0.0 0.00 0.00 0.00 43 1009.0
20260504033517 18 0.0 0.0 0.00 0.00 0.00 43 1009.0
20260504032516 18 0.0 0.0 0.00 0.00 0.00 43 1009.1
20260504031537 20 0.0 0.0 0.00 0.00 0.00 40 1009.2
20260504030516 20 0.0 0.0 0.00 0.00 0.00 37 1009.2
20260504025517 20 0.0 0.0 0.00 0.00 0.00 37 1009.3
20260504024516 20 0.0 0.0 0.00 0.00 0.00 37 1009.4
20260504023537 20 0.0 0.0 0.00 0.00 0.00 37 1009.4
20260504022516 20 0.0 0.0 0.00 0.00 0.00 38 1009.4
20260504021537 20 0.0 0.0 0.00 0.00 0.00 38 1009.4
20260504020517 20 0.0 0.0 0.00 0.00 0.00 37 1009.5
20260504015516 20 0.0 0.0 0.00 0.00 0.00 37 1009.5
20260504014517 20 0.0 0.0 0.00 0.00 0.00 37 1009.5
20260504013516 21 0.0 0.0 0.00 0.00 0.00 37 1009.6
20260504012537 21 0.0 0.0 0.00 0.00 0.00 37 1009.5